Flag for Vietnam Weather past 2 weeks in Ho Chi Minh, Vietnam

Now
72 °F

Passing clouds.


Feels Like: 74 °F
Forecast: 69 / 89 °F
Wind: 3 mph from Northwest

Location: Ho Chi Minh

Current Time: Feb 1, 2015 at 3:12:50 AM

Latest Report: Feb 1, 2015 at 2:30 AM


Visibility: N/A

Pressure: 29.92 "Hg

Humidity: 73%

Dew point: 63 °F

Location of Ho Chi MinhLocation

Historic Weather in Ho Chi Minh — Graph

°F

Ho Chi Minh temperature yesterday

Maximum temperature yesterday: 90 °F (at 2:30 PM)
Minimum temperature yesterday: 70 °F (at 5:30 AM)
Average temperature yesterday: 79 °F

Past Weeks' High & Low Weather Summary

 TemperatureHumidityPressure
High91 °F (Jan 29, 2:00 PM)94% (Jan 20, 6:30 AM)30.07 "Hg (Jan 20, 6:30 AM)
Low68 °F (Jan 19, 5:00 AM)33% (Jan 21, 4:00 PM)29.80 "Hg (Jan 27, 2:30 PM)
Average78 °F64%29.93 "Hg
* Reported Jan 17 2:00 AM — Feb 1 2:00 AM, Ho Chi Minh, Weather by CustomWeather, © 2014

Note: Actual official high and low records may vary slightly from our data, if they occured in-between our weather recording intervals... More about our weather records

Advertising

Ho Chi Minh weather history for previous 24 hours

 ConditionsComfort  
Time TempWeatherWind HumidityBarometerVisibility
2:00 AM
Feb 1
72 °FPassing clouds.3 mph78%29.95 "HgN/A
1:30 AM72 °FPassing clouds.3 mph83%29.95 "HgN/A
1:00 AM73 °FPassing clouds.5 mph78%29.95 "HgN/A
12:30 AM73 °FPassing clouds.3 mph78%29.95 "HgN/A
12:00 AM73 °FPassing clouds.3 mph78%29.95 "HgN/A
11:30 PM
Jan 31
73 °FPassing clouds.2 mph78%29.95 "HgN/A
11:00 PM75 °FPassing clouds.2 mph74%29.95 "HgN/A
10:30 PM73 °FPassing clouds.1 mph74%29.95 "HgN/A
10:00 PM77 °FPassing clouds.2 mph61%29.95 "HgN/A
9:30 PM77 °FPassing clouds.3 mph61%29.95 "HgN/A
9:00 PM79 °FPassing clouds.5 mph58%29.95 "HgN/A
8:30 PM79 °FPassing clouds.5 mph58%29.95 "HgN/A
8:00 PM79 °FPassing clouds.7 mph58%29.92 "HgN/A
7:30 PM79 °FClear.7 mph58%29.92 "Hg5 mi
7:00 PM81 °FPassing clouds.6 mph54%29.92 "Hg5 mi
6:30 PM81 °FPassing clouds.8 mph54%29.92 "Hg5 mi
6:00 PM81 °FPassing clouds.10 mph58%29.92 "Hg5 mi
5:30 PM82 °FPassing clouds.12 mph55%29.92 "Hg5 mi
5:00 PM84 °FPassing clouds.9 mph51%29.89 "Hg5 mi
4:30 PM86 °FPassing clouds.8 mph43%29.89 "Hg5 mi
4:00 PM88 °FPassing clouds.9 mph43%29.89 "Hg5 mi
3:30 PM88 °FPassing clouds.7 mph38%29.89 "Hg5 mi
3:00 PM90 °FPassing clouds.5 mph36%29.89 "Hg5 mi
2:30 PM90 °FPassing clouds.3 mph36%29.89 "HgN/A
2:00 PM88 °FPassing clouds.5 mph40%29.89 "HgN/A
1:30 PM88 °FPassing clouds.6 mph40%29.92 "HgN/A
1:00 PM88 °FPassing clouds.5 mph40%29.92 "HgN/A
12:30 PM88 °FPassing clouds.7 mph43%29.95 "HgN/A
12:00 PM88 °FPassing clouds.7 mph40%29.95 "HgN/A
11:30 AM88 °FPassing clouds.5 mph38%29.98 "HgN/A
11:00 AM84 °FSunny.2 mph43%29.98 "Hg10 mi
10:00 AM82 °FSunny.3 mph48%30.01 "Hg10 mi
9:30 AM81 °FSunny.3 mph48%30.01 "Hg10 mi
9:00 AM79 °FSunny.3 mph54%30.01 "Hg10 mi
8:30 AM77 °FSunny.2 mph54%30.01 "Hg10 mi
8:00 AM75 °FSunny.2 mph57%30.01 "Hg10 mi
7:30 AM73 °FSunny.2 mph61%30.01 "Hg10 mi
7:00 AM72 °FSunny.2 mph65%29.98 "Hg10 mi
6:30 AM70 °FClear.3 mph69%29.98 "Hg5 mi
6:00 AM70 °FClear.5 mph78%29.98 "Hg5 mi
5:30 AM70 °FClear.No wind83%29.95 "Hg5 mi
5:00 AM72 °FClear.3 mph73%29.95 "Hg5 mi
4:30 AM72 °FClear.6 mph83%29.95 "Hg5 mi
4:00 AM72 °FClear.6 mph78%29.92 "Hg5 mi
3:30 AM72 °FClear.2 mph73%29.92 "Hg5 mi
3:00 AM72 °FClear.3 mph73%29.92 "Hg10 mi
Weather by CustomWeather, © 2014

See weather overviewHow to use our weather pages